Wind_Speed
44 44 45 46 47 47 47 47 47 47 47 48 49 49 50 50 51 52 53 53 52 53 52 52 51 51 51 51 50 50 51 50 51 51 51 51 50 50
45 46 46 46 47 49 49 49 49 49 49 49 49 50 51 51 52 52 52 52 52 52 52 52 52 51 51 51 51 51 50 50 51 51 51 52 52 51
46 47 47 48 48 49 49 50 51 51 51 50 51 51 52 52 51 51 51 52 52 52 52 52 51 51 51 51 51 51 51 51 51 51 51 51 52 52
47 47 48 48 49 49 50 51 52 52 52 52 52 52 52 52 52 51 51 51 52 52 52 51 51 51 51 51 50 50 50 51 51 51 51 51 51 51
47 47 48 49 49 49 50 51 52 53 53 53 52 52 52 52 52 52 52 51 51 52 51 51 52 51 51 50 50 50 50 51 50 50 51 51 51 50
47 48 49 49 49 49 51 51 52 52 53 53 53 51 51 51 51 51 50 50 50 51 51 52 51 51 50 49 49 50 50 50 50 50 50 50 49 49
47 48 48 48 49 49 50 50 50 51 52 52 52 51 50 50 50 50 49 49 49 49 49 50 50 49 48 48 48 49 49 49 49 48 48 48 48 48
46 46 47 47 48 49 49 49 49 50 51 51 51 50 49 49 49 49 48 48 47 48 48 47 48 48 48 48 48 48 47 46 46 45 45 45 45 45
45 46 46 47 48 48 48 48 48 48 49 49 49 49 48 48 47 47 47 47 46 47 47 46 47 47 46 46 46 45 45 44 43 43 43 42 42 43
45 46 46 47 47 48 48 48 47 47 48 48 49 48 47 46 46 46 46 46 46 46 46 46 45 45 45 45 44 44 43 42 42 41 41 41 41 40
45 46 47 46 47 47 47 47 47 46 46 46 47 46 46 46 46 46 45 45 45 45 45 45 44 43 43 43 43 42 42 41 41 41 41 40 40 40
45 45 46 46 46 46 47 47 46 45 44 44 44 45 46 46 46 45 44 44 43 43 43 43 42 42 40 40 40 40 39 39 39 39 40 40 40 40
45 45 46 46 46 46 46 45 44 43 42 42 43 43 43 43 44 44 43 42 41 41 41 40 39 39 38 37 38 39 38 38 38 38 39 40 40 39
45 45 45 45 45 45 45 45 44 42 42 42 42 42 42 42 43 43 42 41 40 40 39 38 37 37 36 36 35 36 37 37 38 38 38 39 39 39
44 44 44 43 43 43 44 43 42 42 41 41 41 41 41 41 41 41 41 41 40 39 38 37 36 36 35 35 34 34 34 35 36 36 37 37 37 37
42 42 42 42 42 41 41 41 41 41 40 40 40 40 41 40 39 39 39 39 38 37 36 35 35 35 34 34 34 34 34 34 35 35 35 35 36 36
40 40 40 40 40 40 39 39 39 39 39 39 39 38 38 37 37 38 37 37 36 35 34 34 34 34 33 33 32 33 33 34 34 34 34 34 34 35
37 37 37 37 38 38 37 37 37 38 38 37 37 36 35 35 35 35 35 34 33 32 32 32 32 32 32 32 32 32 33 33 33 32 32 32 32 32
35 36 36 36 36 37 36 36 36 36 36 36 35 34 33 33 33 32 32 31 30 30 31 31 30 30 30 30 31 32 32 31 31 30 30 30 30 29
35 35 35 36 36 36 35 34 34 33 33 33 33 32 32 31 31 30 29 29 29 28 28 28 28 28 29 29 29 29 30 29 28 28 28 29 28 28
34 35 35 35 35 34 34 33 32 31 31 31 31 31 31 30 29 28 27 27 26 26 26 25 26 26 27 27 27 27 27 27 27 27 26 25 24 23
34 34 33 33 33 32 32 31 30 29 29 29 29 29 29 28 27 26 25 25 25 25 24 24 25 25 26 26 25 26 25 25 25 25 24 22 21 19
32 32 31 31 31 30 29 28 28 28 28 28 28 28 27 26 25 24 24 24 24 23 23 23 23 23 23 23 24 24 23 22 22 22 22 21 19 18
Wind_Direction
273 275 276 276 276 277 278 279 280 280 280 280 280 280 281 281 281 281 281 281 281 282 282 281 281 281 281 280 280 280 279 278 277 276 276 276 275 275
274 275 276 277 277 278 278 279 280 281 280 281 281 280 281 282 282 282 281 281 280 281 281 281 281 281 281 280 280 280 279 278 278 278 277 275 274 274
275 275 277 278 278 278 278 280 280 281 281 281 281 281 281 281 282 282 281 280 281 282 282 282 282 282 282 281 281 280 279 279 278 278 277 276 275 274
275 276 277 279 278 278 279 280 281 281 281 281 281 282 281 281 280 281 281 281 282 282 282 282 282 282 282 281 280 280 280 279 278 277 277 277 276 275
277 277 279 279 278 279 279 280 281 281 281 281 282 283 281 281 280 280 281 281 281 281 281 281 282 282 282 281 280 280 279 279 278 277 277 276 276 276
278 278 279 279 279 279 279 280 280 281 281 282 282 283 282 282 282 281 281 281 281 281 282 282 282 282 282 281 281 280 279 279 278 277 277 277 276 276
278 278 279 280 280 280 281 281 282 282 282 283 283 283 283 283 283 282 281 281 281 282 282 283 283 282 282 282 282 281 280 279 278 278 278 278 278 277
278 279 280 281 281 281 281 282 282 282 283 283 283 284 284 283 283 282 282 282 282 282 283 283 283 282 282 282 282 282 281 279 279 279 279 278 278 278
279 279 280 282 282 282 282 283 283 283 283 284 284 285 284 284 283 283 283 283 283 284 284 284 283 284 283 283 283 282 281 280 280 280 279 279 278 278
279 280 281 282 283 283 282 283 283 283 284 285 285 285 285 284 284 284 284 284 284 284 284 284 284 284 284 284 283 282 280 279 280 280 279 280 280 280
280 281 282 283 284 283 283 283 284 284 284 285 285 286 285 285 285 286 285 285 285 285 284 284 284 284 284 283 283 282 280 279 280 279 280 281 281 281
280 281 283 284 285 285 284 284 284 284 284 284 285 285 285 285 286 286 286 286 286 286 284 284 284 283 282 281 281 281 280 280 280 280 279 280 281 280
281 282 283 284 285 285 285 284 283 283 283 284 285 285 285 286 286 286 286 287 287 287 286 284 283 283 283 281 280 280 280 280 280 281 281 280 280 279
282 283 283 284 283 284 284 284 284 283 283 284 284 285 286 286 286 286 286 287 288 288 286 284 283 282 282 282 282 281 280 280 281 282 282 282 281 279
283 284 284 284 283 283 282 283 283 283 283 284 285 286 287 287 287 286 286 286 287 288 286 284 282 281 282 282 282 282 281 280 282 283 284 283 281 280
284 284 284 284 284 283 282 282 282 283 284 286 287 287 288 288 287 287 287 286 286 287 287 285 284 282 282 282 283 283 283 282 282 284 284 284 283 282
282 283 284 284 285 284 283 282 283 283 283 286 287 288 289 288 288 288 287 287 286 285 284 284 284 283 282 282 283 284 284 284 284 285 285 285 284 283
282 283 285 285 285 284 284 284 283 283 284 286 289 289 289 289 290 290 289 287 286 285 284 283 284 283 283 284 284 285 286 287 287 287 286 286 285 283
282 284 285 285 285 285 284 284 284 284 285 287 289 289 290 290 291 290 288 286 286 286 285 284 283 283 283 284 286 287 288 289 288 288 288 287 286 283
283 284 285 286 285 285 283 283 284 285 286 287 288 289 289 290 290 289 287 286 286 286 286 284 284 285 286 287 288 290 290 291 289 289 288 288 287 284
283 285 285 286 286 284 283 283 284 284 285 286 287 287 288 289 289 288 286 286 286 286 286 286 286 288 289 290 291 292 293 293 291 290 290 289 287 284
284 286 287 287 286 285 284 283 283 283 285 286 287 287 287 288 288 287 286 286 286 286 286 286 287 288 289 290 292 294 294 293 291 291 291 289 287 283
285 286 287 287 287 285 284 283 282 282 284 285 286 286 286 286 286 286 285 285 286 286 287 287 288 288 289 291 294 295 295 292 291 291 290 288 286 284
Height
5681 5680 5680 5679 5678 5678 5677 5676 5676 5676 5677 5675 5673 5671 5669 5667 5665 5663 5661 5659 5657 5655 5653 5651 5650 5648 5647 5645 5644 5643 5642 5641 5640 5640 5639 5639 5639 5639
5669 5668 5668 5667 5666 5665 5665 5664 5662 5662 5662 5662 5660 5658 5655 5653 5650 5648 5646 5644 5642 5640 5638 5637 5635 5634 5632 5631 5629 5628 5627 5626 5625 5624 5624 5623 5623 5623
5657 5656 5656 5654 5654 5653 5652 5650 5649 5648 5647 5647 5646 5644 5641 5639 5636 5634 5632 5630 5628 5626 5624 5622 5621 5619 5618 5616 5615 5613 5612 5611 5610 5609 5608 5607 5607 5608
5644 5643 5643 5641 5641 5639 5638 5637 5635 5634 5633 5632 5631 5629 5627 5624 5622 5620 5618 5616 5614 5612 5610 5608 5606 5604 5603 5601 5600 5598 5597 5596 5594 5593 5593 5592 5591 5591
5631 5630 5629 5628 5627 5626 5624 5623 5622 5619 5618 5616 5616 5613 5611 5609 5607 5606 5603 5601 5599 5597 5595 5593 5591 5589 5588 5586 5585 5583 5582 5580 5579 5578 5577 5576 5575 5575
5618 5617 5616 5615 5613 5612 5610 5609 5607 5605 5603 5601 5600 5598 5596 5594 5592 5591 5589 5586 5584 5582 5580 5578 5576 5575 5573 5571 5570 5568 5566 5565 5563 5562 5561 5560 5559 5559
5605 5604 5603 5601 5599 5598 5596 5594 5593 5591 5589 5587 5586 5584 5582 5579 5578 5576 5574 5572 5570 5567 5565 5563 5562 5560 5558 5556 5555 5553 5551 5550 5548 5547 5546 5545 5544 5544
5593 5591 5590 5588 5587 5585 5583 5581 5579 5577 5575 5573 5571 5569 5568 5565 5563 5561 5559 5558 5557 5555 5552 5550 5547 5545 5543 5542 5540 5538 5536 5535 5534 5533 5532 5531 5530 5530
5580 5579 5577 5576 5573 5572 5570 5568 5565 5563 5561 5559 5557 5556 5554 5552 5550 5548 5546 5544 5543 5540 5538 5537 5533 5531 5529 5527 5525 5524 5523 5521 5520 5520 5519 5518 5517 5516
5567 5566 5564 5563 5560 5559 5557 5555 5552 5550 5548 5546 5544 5543 5540 5538 5536 5534 5532 5530 5528 5526 5523 5523 5520 5518 5515 5513 5511 5510 5509 5508 5507 5506 5506 5505 5504 5503
5554 5553 5551 5550 5548 5546 5544 5542 5540 5538 5535 5532 5531 5529 5526 5524 5522 5520 5518 5516 5515 5513 5510 5508 5507 5505 5503 5500 5498 5497 5496 5495 5494 5493 5493 5492 5492 5491
5542 5540 5538 5536 5534 5532 5530 5528 5527 5525 5522 5520 5518 5516 5514 5511 5509 5507 5505 5503 5501 5500 5497 5495 5493 5491 5491 5489 5486 5484 5483 5482 5481 5481 5480 5479 5479 5478
5529 5528 5526 5523 5521 5519 5517 5515 5513 5511 5510 5508 5506 5504 5501 5499 5496 5494 5492 5490 5488 5486 5485 5482 5481 5478 5477 5477 5476 5473 5472 5471 5470 5468 5467 5466 5465 5465
5516 5514 5513 5511 5509 5506 5504 5502 5500 5498 5497 5496 5494 5492 5489 5486 5484 5482 5480 5478 5476 5474 5472 5470 5469 5467 5466 5465 5464 5463 5461 5459 5458 5457 5455 5454 5453 5452
5503 5501 5500 5498 5496 5494 5492 5490 5488 5486 5485 5483 5482 5480 5477 5474 5472 5470 5468 5466 5464 5461 5460 5458 5457 5456 5455 5454 5453 5452 5450 5449 5447 5446 5444 5442 5441 5440
5490 5489 5487 5485 5483 5481 5479 5478 5476 5475 5473 5472 5470 5468 5465 5463 5461 5459 5457 5455 5453 5451 5449 5447 5446 5445 5444 5443 5442 5441 5439 5438 5437 5435 5433 5431 5430 5428
5479 5478 5476 5474 5472 5470 5468 5467 5465 5464 5462 5461 5459 5457 5454 5452 5450 5448 5446 5444 5443 5441 5440 5438 5436 5434 5434 5433 5432 5430 5429 5428 5426 5425 5423 5421 5419 5417
5467 5466 5465 5463 5461 5459 5457 5456 5454 5453 5452 5450 5448 5446 5444 5442 5440 5438 5436 5434 5433 5431 5430 5429 5427 5426 5425 5424 5423 5421 5419 5418 5416 5414 5412 5411 5409 5407
5457 5456 5454 5452 5450 5448 5447 5445 5444 5443 5441 5440 5438 5436 5434 5432 5430 5429 5427 5425 5423 5422 5421 5419 5418 5417 5416 5416 5414 5412 5410 5409 5407 5405 5403 5401 5400 5398
5447 5445 5444 5442 5440 5438 5437 5435 5434 5433 5431 5430 5429 5427 5425 5423 5421 5420 5418 5416 5415 5414 5412 5411 5410 5409 5408 5407 5406 5404 5401 5399 5398 5396 5395 5393 5391 5389
5437 5435 5433 5431 5430 5428 5427 5426 5424 5423 5422 5421 5419 5418 5416 5414 5413 5411 5410 5408 5407 5406 5405 5404 5403 5401 5399 5398 5397 5396 5394 5391 5389 5388 5386 5385 5383 5382
5427 5425 5423 5421 5420 5418 5417 5416 5415 5414 5413 5412 5411 5409 5408 5406 5404 5403 5402 5401 5400 5398 5397 5396 5395 5394 5392 5391 5389 5388 5386 5384 5382 5380 5378 5377 5376 5376
5417 5415 5413 5412 5410 5409 5408 5407 5406 5405 5404 5403 5402 5401 5399 5398 5397 5396 5395 5393 5392 5391 5390 5389 5388 5387 5385 5384 5382 5380 5378 5377 5376 5374 5372 5371 5370 5370